sat.trackr.live / text

‹ back to catalog

STARLINK-31543

NORAD 59402 · 2024-064E

PAYLOAD ACTIVE UNKNOWN

§ Identity

Operator
Country
US
Launch date
2024-04-05
Launch site
AFETR
Launch vehicle
Mass (kg)
RCS (m²)

Purposes: comms

External: N2YO · Heavens-Above · Gunter

§ Orbital elements

Epoch: 2026-09-21T09:25:29.960832Z

Period
94.27 min
Inclination
43.0018°
Eccentricity
0.0000611
Mean motion
15.27576355 rev/d
Perigee alt
482.6 km
Apogee alt
483.5 km
Semi-major
6,861.2 km
B*
5.7260e-5
RAAN
31.1474°
Arg perigee
228.6825°
Mean anomaly
131.3974°
Rev number
13,915

§ Raw data

STARLINK-315431 59402U 24064E   26264.39270788  .00001314  00000+0  57260-4 0  99922 59402  43.0018  31.1474 0000611 228.6825 131.3974 15.27576355139152

JSON: /api/v1/satellites/59402 · /tle

For live sub-satellite position, see the globe view (requires WebGL).

§ Visibility from observer

Set your observer location to see the next 7 days of passes ≥ 10°. The values pass through the URL so the page stays shareable.

No JS? Fill the form by hand. The geolocation button needs JavaScript.